RH
55 55 52 53 54 54 54 54 61 61 56 58 55 53 58 55 61 72 78 78 76 77 76 77 75 70 62 52 49 47 45 42 44 50 56 60 50 43 39 31 29 32 36 34 31 27 23 22 21 23 23 21 21 20 23 32 40 42 48 53 59 71 77 77 74 73 75 76 77 78 83 83 84 88 89 90 89 89 90 89 89 88 88 88 87 86 86 87 88 81 75 76 78 79 74 66 58
53 54 54 57 57 58 60 57 63 68 61 59 57 59 66 60 69 84 83 79 79 79 78 78 70 61 52 46 48 42 42 45 39 37 38 36 31 29 27 25 27 29 31 28 26 23 21 22 22 24 25 25 23 23 25 28 33 40 47 50 54 64 71 75 73 71 71 71 70 71 78 81 85 90 89 88 89 89 90 90 90 91 92 91 90 87 86 86 89 89 86 84 81 81 82 81 76
53 55 55 56 57 58 60 60 65 71 60 54 61 62 67 71 81 88 82 79 80 81 81 74 61 51 47 46 49 45 46 48 41 37 35 32 29 27 25 22 23 24 24 23 23 23 22 24 25 27 28 30 29 26 27 28 28 33 43 50 55 63 70 76 75 71 68 65 63 62 70 78 81 85 86 89 91 87 88 93 93 92 93 94 94 90 87 85 89 93 92 93 88 84 84 84 81
59 59 59 58 57 58 59 67 68 67 57 52 64 64 69 82 85 82 79 80 80 83 81 66 54 50 50 49 49 48 47 46 42 41 36 32 28 24 21 19 20 20 20 21 22 23 23 25 27 29 32 36 36 33 31 30 29 28 33 40 44 52 61 67 68 63 62 63 60 57 62 68 73 80 84 86 89 89 88 93 95 92 92 93 96 95 93 90 91 93 91 91 91 90 88 88 84
65 65 63 61 57 56 56 60 53 55 58 56 66 64 69 83 83 82 81 82 82 84 80 63 55 53 54 54 53 51 48 47 44 40 36 32 28 25 21 17 16 17 18 19 21 23 23 25 27 29 34 40 43 39 35 33 29 27 28 31 33 39 47 52 53 48 50 56 54 47 44 47 59 72 79 83 85 88 90 93 94 91 91 91 95 98 97 95 94 94 89 86 89 93 91 90 90
59 67 64 60 53 52 55 55 50 58 57 56 72 66 66 78 82 85 83 83 84 84 79 64 59 60 59 60 56 53 50 47 44 40 37 34 31 27 22 17 14 15 17 19 20 22 22 21 22 24 28 32 36 36 35 33 30 27 25 25 26 29 35 39 39 35 36 38 34 29 25 28 42 55 70 87 91 87 88 93 93 91 93 94 97 99 98 98 98 98 94 89 89 94 93 92 96
39 59 60 55 49 50 61 62 61 69 59 52 67 68 67 77 83 86 84 84 85 83 77 67 66 66 62 61 57 54 51 46 43 41 39 35 32 29 24 17 13 15 17 20 21 21 21 20 21 21 23 24 24 25 26 28 27 26 25 24 23 23 24 26 25 24 24 21 18 16 15 18 25 37 54 81 98 97 93 92 92 92 95 97 97 95 96 98 98 100 99 96 95 96 96 96 99
22 39 49 51 48 43 51 54 53 59 58 54 61 72 76 81 86 87 86 85 86 81 75 72 72 69 63 61 57 54 51 46 44 43 40 36 32 30 25 18 14 16 19 21 22 23 23 22 21 19 19 19 19 18 18 19 20 21 21 22 22 22 21 21 20 18 17 15 15 14 14 15 14 20 29 49 71 78 87 93 94 96 96 99 99 93 94 97 97 99 100 99 98 97 97 98 99
15 20 30 43 51 45 43 47 48 46 49 57 64 76 82 85 88 86 85 85 85 81 76 75 73 69 64 62 58 53 50 46 45 43 39 35 32 30 25 19 17 19 22 24 25 25 25 22 19 17 16 15 15 14 13 13 14 15 15 16 17 19 20 21 20 19 18 16 16 14 14 13 13 14 15 25 34 47 77 94 95 97 97 99 99 97 97 98 99 99 100 100 97 97 98 99 100
10 11 14 25 40 45 46 44 49 48 46 58 66 74 81 85 86 84 86 85 83 80 77 75 73 69 65 62 58 53 49 46 44 42 38 34 31 28 23 21 21 23 25 27 27 26 24 20 16 14 13 12 11 10 10 10 10 10 10 10 10 11 13 15 17 18 18 17 16 16 15 14 14 13 13 23 36 55 83 93 91 91 95 98 96 95 96 98 100 100 100 101 99 99 100 100 100
6 9 10 23 37 43 46 42 43 46 50 61 67 70 78 82 84 83 83 84 83 80 76 72 69 65 62 60 56 50 47 45 43 39 35 32 29 25 23 22 23 25 27 27 25 23 20 16 14 13 12 10 9 8 7 7 7 7 6 6 5 5 6 7 10 14 16 18 18 17 16 16 14 14 16 21 43 75 91 95 96 96 98 99 98 96 95 97 99 98 98 100 98 98 99 98 97
7 8 9 29 42 36 35 38 38 42 55 67 68 67 72 78 81 83 80 80 81 79 76 70 66 61 58 55 51 47 46 43 40 36 32 30 26 22 21 22 23 24 26 25 21 18 16 14 13 11 10 9 7 7 6 6 6 5 5 5 5 4 3 4 5 9 14 17 18 18 17 17 16 15 14 17 50 90 99 96 94 91 89 82 84 92 97 98 98 97 97 98 95 94 96 97 99
12 12 13 28 32 23 25 35 35 42 62 66 67 69 69 72 72 77 80 78 77 76 71 66 64 58 55 51 48 46 43 40 36 34 32 28 23 20 20 20 21 23 24 22 18 15 13 12 12 10 10 9 8 7 7 7 6 6 6 6 6 5 5 3 3 6 10 14 15 17 15 16 16 16 29 52 80 98 96 87 78 75 74 71 70 74 82 86 92 99 98 97 96 95 98 98 97
20 19 22 28 26 21 23 34 33 42 65 58 61 70 68 69 67 70 75 75 74 70 64 60 59 54 50 47 45 43 39 36 35 32 29 25 21 19 19 19 20 21 21 18 16 14 13 12 11 10 9 9 8 8 8 7 7 7 7 7 7 7 6 4 4 4 6 10 12 14 13 14 16 21 48 81 90 91 92 83 72 70 74 80 76 66 69 74 82 95 97 98 99 97 99 97 93
23 21 22 24 22 24 24 32 31 40 58 47 52 66 67 71 69 70 71 70 68 63 61 57 55 50 45 44 41 39 37 35 33 29 24 21 20 20 20 19 19 18 16 15 14 12 13 14 12 10 9 9 8 8 8 8 8 8 8 8 8 8 7 6 5 4 5 7 8 9 11 12 14 24 48 67 76 88 93 83 71 73 78 83 84 72 67 71 74 82 88 95 99 98 98 98 97
19 17 19 20 19 25 27 27 27 36 44 37 47 57 63 69 67 69 68 66 63 59 58 53 50 46 43 42 39 38 36 33 28 22 20 19 19 19 18 16 15 13 12 12 13 12 13 16 15 12 10 9 9 9 9 9 9 8 9 8 8 8 8 8 5 5 5 5 8 8 9 14 21 34 55 70 81 91 89 85 83 83 82 78 85 82 73 76 76 75 79 86 95 100 100 98 98
16 15 16 20 18 23 26 22 26 36 35 30 41 49 55 61 61 63 61 61 59 56 54 50 47 44 42 40 38 36 31 25 20 16 15 15 15 15 14 14 14 14 13 12 12 12 14 17 17 15 12 11 10 10 10 10 9 9 9 8 9 9 8 8 8 11 9 7 8 11 17 24 35 50 75 91 93 96 92 92 94 89 81 75 85 92 89 90 87 80 78 84 96 100 99 96 96
16 15 15 22 20 19 20 19 23 29 27 29 37 43 51 57 58 59 58 58 57 55 52 49 46 42 41 38 33 27 20 17 14 12 12 13 14 14 15 16 18 17 16 14 13 12 14 17 17 16 14 12 11 10 10 10 10 10 9 9 9 9 10 8 10 16 32 50 51 55 58 44 45 60 83 99 98 100 99 97 96 85 78 79 89 97 98 98 95 89 85 91 99 100 99 97 98
18 15 15 21 17 14 17 18 21 22 24 28 33 39 49 56 57 56 54 54 53 51 48 45 42 40 37 30 22 16 14 13 10 10 12 13 15 16 17 18 18 17 16 14 13 13 14 16 16 15 14 13 12 11 11 10 10 10 10 10 9 9 9 9 14 15 38 74 85 92 90 72 76 85 91 100 100 100 98 97 91 75 73 84 94 99 100 99 99 98 95 98 100 99 100 98 98
18 16 15 17 14 15 18 18 19 21 22 27 34 43 51 56 55 53 50 48 47 45 42 41 40 36 29 20 15 14 12 10 9 10 12 14 16 16 17 16 16 15 14 13 13 14 15 16 15 15 14 13 13 12 11 11 10 10 10 11 10 11 10 11 14 17 29 46 62 77 76 79 96 97 96 99 99 101 99 95 84 68 73 87 94 96 98 99 99 99 99 100 100 100 99 98 96
14 14 14 13 14 17 19 18 18 19 22 28 38 45 50 52 50 48 45 43 42 41 41 40 37 29 20 15 14 14 12 11 12 14 15 16 16 15 15 14 14 13 13 13 14 16 16 16 16 15 14 13 13 12 12 11 11 11 11 11 12 13 16 18 19 35 60 58 55 68 68 77 93 94 100 101 97 97 93 87 76 64 66 79 91 96 96 95 93 94 99 99 99 100 98 98 96
11 10 10 11 12 17 20 21 20 21 22 27 37 44 45 45 45 44 44 44 43 42 40 36 29 22 17 16 16 15 14 15 16 18 19 20 18 15 14 13 13 14 15 16 18 18 17 17 16 15 14 13 13 12 12 11 12 12 11 11 12 15 19 28 32 46 85 94 75 74 73 68 74 82 89 87 84 83 79 76 71 64 60 66 80 92 93 91 91 90 95 99 98 100 97 95 96
10 10 10 11 12 16 21 23 24 26 26 26 32 38 39 41 42 43 43 43 41 37 32 27 22 19 18 17 17 17 17 18 20 21 22 22 21 18 16 17 18 18 19 20 20 20 20 19 18 17 16 15 14 14 14 13 13 13 13 13 12 16 19 32 42 42 67 89 85 92 93 77 75 81 82 77 74 74 74 75 75 73 72 74 76 83 89 91 95 95 95 97 98 100 98 95 96
9 9 9 11 12 14 18 21 23 25 28 27 27 29 30 34 35 35 35 34 31 27 23 21 20 18 18 17 18 19 20 22 22 23 24 24 23 22 21 22 23 23 23 23 24 24 24 22 20 19 18 17 17 16 16 15 16 15 15 16 14 15 17 24 34 37 47 56 66 90 95 91 97 97 96 92 85 85 85 85 86 82 84 92 89 88 92 89 92 96 98 100 100 100 98 97 98
8 8 8 9 10 12 14 17 19 21 24 25 25 24 24 25 25 26 25 24 22 20 20 19 18 17 17 18 19 22 23 24 24 24 24 24 24 25 25 26 26 27 28 29 30 29 26 24 22 21 20 19 19 18 18 18 18 18 17 18 18 17 17 18 20 30 48 52 60 74 69 81 102 100 100 101 97 99 98 97 98 94 93 99 99 98 98 95 91 89 90 95 98 100 98 97 98
8 8 8 8 8 10 11 13 16 18 21 22 22 21 21 20 20 20 19 18 18 18 18 18 18 18 18 20 22 25 26 25 25 24 24 25 26 27 28 30 32 33 34 34 33 31 28 26 24 23 22 21 21 20 20 20 20 20 20 20 20 20 19 20 20 28 45 56 72 82 71 78 98 98 97 99 99 99 99 100 100 100 100 100 100 100 100 100 98 93 90 91 95 99 100 97 96
8 8 8 8 9 10 12 13 15 17 19 20 20 20 19 17 17 17 15 16 18 19 20 20 20 20 20 23 25 27 27 25 24 25 26 28 29 31 34 35 37 37 37 36 33 31 28 27 26 26 26 24 24 23 22 23 22 22 21 21 22 22 22 22 25 28 33 41 66 93 91 82 86 92 92 90 90 91 94 100 100 100 100 100 100 100 100 100 100 100 99 97 97 98 100 100 99
7 7 8 8 9 10 12 12 14 16 18 18 18 19 17 15 15 15 16 18 20 21 21 21 21 22 24 26 28 28 26 25 26 27 29 31 34 37 39 40 40 39 38 36 33 31 30 30 29 29 29 28 27 26 26 25 25 25 24 24 23 23 24 24 26 29 32 38 55 82 95 91 87 86 84 81 79 78 83 92 99 100 100 100 101 100 100 100 99 100 100 99 96 95 97 99 101
7 6 7 8 9 10 10 11 12 14 16 16 16 18 16 13 15 18 21 23 22 23 23 23 24 25 28 29 29 28 27 27 29 31 34 37 40 42 42 42 41 40 38 36 34 33 33 33 33 32 31 31 30 29 29 28 28 27 26 26 26 25 25 24 25 27 30 39 53 72 84 90 88 79 78 83 81 78 77 81 88 95 98 99 99 100 100 100 101 100 100 100 98 96 98 99 100
9 9 9 11 12 12 10 11 12 13 14 13 14 20 21 17 19 23 24 25 25 26 26 26 28 29 31 31 30 29 29 31 34 36 39 42 44 44 44 43 41 40 38 37 36 36 36 36 35 35 34 33 33 32 31 31 30 30 29 28 27 27 27 26 26 26 26 31 45 62 71 79 88 87 89 94 92 88 84 80 80 85 92 95 96 98 99 99 99 99 99 100 101 100 99 100 100
9 9 11 10 13 15 11 12 14 16 18 17 18 25 28 24 24 27 27 28 27 27 28 29 30 32 33 32 31 32 34 37 39 42 44 46 46 46 44 43 41 40 39 39 39 39 38 39 38 37 37 36 35 35 35 34 33 32 31 30 29 28 28 27 26 27 27 26 31 42 52 63 77 85 91 94 92 91 93 92 89 86 86 89 92 93 94 95 94 93 92 93 97 100 100 100 100
6 9 13 8 12 18 15 19 24 25 27 26 27 31 31 28 28 29 29 28 27 27 29 30 32 33 33 34 34 37 40 42 45 47 48 48 47 45 44 43 42 42 42 42 41 41 41 41 41 40 40 40 39 39 38 37 36 35 34 32 31 29 28 27 26 25 25 25 24 26 31 39 48 56 65 67 66 69 78 85 87 85 84 85 89 92 90 87 87 86 86 86 87 91 97 98 98
5 9 15 11 15 23 23 28 31 32 33 32 32 32 31 30 30 30 29 27 26 26 29 31 33 34 35 38 40 43 46 48 49 49 49 47 46 45 44 44 44 44 44 44 44 44 44 44 44 44 44 44 44 44 43 42 41 40 38 36 34 33 31 29 26 24 23 22 22 21 21 23 25 28 32 34 35 39 45 50 55 58 63 69 73 78 79 77 76 75 78 81 80 81 86 91 93
10 8 13 13 15 25 30 33 33 34 35 34 34 33 32 32 30 27 24 23 25 28 31 34 35 37 40 44 47 49 50 51 50 48 47 46 45 45 46 47 47 47 47 47 47 47 47 48 48 48 48 48 48 48 48 49 48 47 46 44 43 41 40 37 33 29 26 23 21 21 21 22 24 24 23 23 23 23 23 23 25 27 31 38 42 46 51 55 56 58 64 70 71 72 75 80 85
15 13 18 20 19 27 34 35 33 34 35 34 33 32 30 28 24 23 24 26 30 33 36 38 41 44 47 49 50 51 50 49 47 47 47 46 47 48 49 49 49 49 50 49 48 48 50 50 51 51 51 52 52 52 52 51 51 50 50 49 48 47 46 45 44 41 38 35 31 29 28 29 33 35 36 35 33 30 27 24 20 18 17 17 19 22 26 32 37 42 48 51 55 62 66 70 76
17 17 21 24 26 32 34 34 34 33 32 29 26 26 26 26 26 27 29 33 36 39 41 44 47 49 49 49 49 48 47 46 46 46 48 48 48 49 49 49 49 50 51 51 50 51 52 51 51 51 49 48 47 45 44 42 40 39 38 36 35 35 34 35 36 37 39 39 40 40 39 39 40 41 42 43 43 41 40 38 35 31 26 22 18 15 14 17 22 29 35 37 40 46 51 56 61
18 18 19 19 25 33 32 32 32 28 26 25 25 29 30 29 27 26 28 33 37 41 45 47 47 47 46 45 43 43 43 43 44 46 48 47 45 44 43 42 43 46 47 47 47 46 44 42 40 38 35 32 30 28 26 25 24 23 22 20 19 17 16 16 16 18 20 22 25 27 29 32 33 35 37 38 38 38 37 37 37 37 37 36 34 29 23 18 15 16 20 26 29 30 31 36 41
23 23 24 23 27 31 28 25 24 24 26 29 32 32 29 25 23 25 28 33 37 42 45 45 43 40 37 35 34 36 37 38 38 39 38 36 36 36 36 36 37 37 35 32 31 28 25 24 21 19 19 18 18 18 18 18 17 17 16 14 12 11 9 9 9 9 9 9 10 11 13 14 16 18 20 23 24 25 25 24 24 24 26 28 32 34 35 33 29 22 16 15 17 19 21 22 25
23 23 24 27 27 25 24 23 23 27 29 31 31 26 25 26 27 30 33 36 40 42 40 35 31 26 22 22 24 25 26 26 25 25 26 26 27 28 28 28 27 25 23 21 20 18 17 16 14 14 15 16 18 19 20 20 19 18 16 14 12 11 9 9 8 8 8 8 8 8 8 8 9 9 10 11 12 12 13 14 14 13 13 14 16 18 23 27 32 34 31 25 18 15 15 15 16
21 20 23 25 22 20 27 28 25 27 26 26 26 26 29 32 33 35 37 39 37 32 27 21 18 16 14 15 17 17 16 15 16 18 20 22 22 21 21 21 20 20 20 20 19 19 18 16 16 18 18 20 22 24 25 23 21 17 14 13 12 12 11 11 9 9 8 9 9 8 9 9 9 9 9 9 9 10 9 9 10 9 9 9 9 10 11 12 16 21 27 31 30 26 21 17 15
22 20 20 21 19 19 25 24 22 23 25 28 28 29 34 36 36 38 37 34 28 22 18 15 15 14 14 15 15 15 15 15 17 19 19 20 20 20 19 19 20 20 20 21 20 19 19 19 21 23 23 25 27 29 28 25 21 18 15 15 15 15 15 14 13 13 12 11 11 10 10 10 10 9 10 10 10 9 9 9 9 9 9 8 8 9 9 9 10 11 13 17 23 27 28 26 22
22 20 19 19 20 21 21 21 23 24 28 35 30 27 36 41 38 36 33 28 23 20 19 17 17 16 16 16 16 17 18 19 20 20 19 18 18 18 17 18 19 21 21 21 20 20 21 23 27 30 29 29 28 28 26 24 22 21 23 26 26 26 25 23 21 19 17 14 13 12 11 10 10 10 10 10 10 10 9 9 9 8 8 8 8 8 8 8 8 9 10 10 11 14 18 22 24
22 23 23 22 22 23 23 23 24 24 28 34 29 22 33 44 40 32 28 26 24 23 21 19 18 17 17 16 17 18 19 20 19 18 16 15 15 16 17 20 22 22 22 21 22 23 26 32 37 36 30 27 24 24 25 25 26 28 33 36 36 36 34 30 27 23 20 19 16 14 14 12 10 11 10 10 10 10 10 9 9 9 8 8 7 7 7 7 7 8 9 10 11 11 11 13 15
23 24 24 24 24 23 23 21 20 22 25 30 30 24 31 43 41 33 30 28 26 25 22 21 20 18 17 16 18 19 19 19 18 16 15 14 16 18 22 27 27 24 23 24 26 28 33 38 38 32 26 25 25 26 29 31 32 35 38 39 39 39 39 37 35 31 27 27 26 24 21 16 13 11 11 11 11 11 11 11 11 11 11 10 10 9 8 7 8 8 8 9 10 11 12 12 12
24 25 23 23 21 18 18 16 18 22 26 32 34 26 29 42 43 35 32 32 28 26 24 22 21 19 18 18 19 20 20 19 17 15 15 16 20 23 26 29 28 25 25 28 30 33 36 37 36 33 31 31 32 32 36 41 43 43 42 41 41 42 46 46 40 35 35 38 38 35 30 23 18 15 14 14 14 14 14 15 16 16 16 16 15 15 14 14 13 12 12 12 12 12 13 14 15
25 24 21 18 14 14 16 18 23 25 27 36 34 21 20 34 46 42 37 36 31 28 26 23 22 21 19 19 20 22 22 20 17 16 16 20 24 25 26 28 29 29 28 29 30 32 34 36 39 41 39 39 40 40 44 49 52 51 48 46 47 47 50 52 48 45 46 46 42 36 34 29 25 23 21 19 19 20 21 22 24 25 24 24 24 23 22 22 22 21 20 18 18 17 17 17 18
24 20 15 13 13 17 21 24 29 25 27 37 33 21 14 22 43 51 43 38 34 29 27 25 24 23 21 21 22 24 23 20 17 16 17 21 23 23 24 26 28 31 31 31 33 36 40 43 45 46 45 45 47 50 55 60 61 62 61 59 58 57 57 58 57 53 47 42 35 30 32 32 31 33 31 27 29 32 37 39 39 38 36 34 33 33 33 33 32 32 30 28 26 24 23 23 22
20 15 12 13 15 22 25 26 28 21 25 37 33 26 18 16 36 50 43 37 34 30 28 27 26 25 23 23 23 24 23 20 17 15 17 19 21 22 23 25 28 33 38 42 44 44 46 48 49 52 54 54 57 61 64 65 64 66 67 66 65 63 60 55 48 40 33 31 29 29 34 38 41 45 43 47 54 57 64 65 59 54 50 46 45 45 45 46 45 43 40 37 34 31 28 27 26
17 11 10 13 15 20 21 21 24 19 23 35 36 30 22 19 34 43 39 37 35 31 28 28 28 26 24 24 24 24 22 17 15 16 17 17 19 20 23 26 29 33 40 46 49 49 51 51 52 57 60 60 64 65 63 61 62 65 66 62 57 50 42 33 27 22 20 23 28 33 39 45 56 62 60 71 84 85 87 86 78 74 66 57 55 58 60 60 56 53 49 45 41 38 34 31 29
14 9 9 10 11 17 20 22 25 22 20 28 33 29 23 27 34 33 34 38 34 29 28 28 28 26 24 23 23 21 18 16 16 17 17 18 19 20 23 27 30 32 38 43 47 50 52 53 53 56 56 53 54 53 50 49 48 48 45 39 33 25 19 15 14 15 17 22 29 37 44 51 63 71 71 85 99 98 98 97 90 86 82 70 63 65 72 73 64 58 55 51 47 43 38 36 32
10 7 7 8 9 12 18 21 22 24 23 23 27 24 22 29 34 34 38 38 31 27 28 28 26 24 22 21 19 17 16 16 17 18 19 20 21 21 23 27 28 31 35 39 41 41 43 45 44 45 44 38 35 32 29 26 22 20 17 14 12 10 10 9 10 11 13 18 24 32 42 49 58 65 68 85 101 100 100 102 97 91 88 83 72 67 76 81 69 59 57 55 51 47 42 39 37
11 7 6 11 12 10 17 24 26 29 28 25 26 23 21 26 31 34 34 31 28 28 27 26 24 22 21 20 18 17 17 18 20 21 22 22 23 24 24 26 26 27 30 32 33 33 33 34 31 30 27 23 19 15 12 10 8 8 7 6 7 6 7 7 7 10 11 15 19 25 34 42 51 58 64 81 99 101 100 101 101 97 91 87 80 71 74 83 75 60 57 59 56 52 47 43 41
12 9 9 14 16 13 16 25 33 33 25 22 26 26 25 26 28 28 27 25 26 26 25 25 23 20 19 19 18 18 19 21 22 23 24 24 25 26 25 26 26 26 27 27 26 25 24 23 20 18 15 12 10 8 7 7 6 6 5 5 5 6 6 7 8 10 12 16 22 28 35 40 47 54 64 85 99 100 100 101 101 100 93 87 84 75 72 80 80 66 59 61 61 58 53 49 46
10 10 12 16 22 22 16 19 32 32 22 19 24 28 29 28 26 25 23 21 22 24 26 24 20 19 19 19 19 20 22 23 24 25 26 27 27 27 27 27 26 25 24 23 22 21 19 17 14 13 11 9 8 7 6 6 5 5 5 5 6 6 7 9 10 13 16 22 30 38 44 48 52 54 64 87 102 101 100 101 101 101 96 91 88 82 76 78 84 77 68 67 66 64 60 56 52
8 9 11 13 19 24 18 15 22 24 21 22 26 28 26 22 22 20 17 19 23 26 25 20 18 19 19 20 21 22 24 25 26 27 28 29 29 29 28 26 25 24 24 22 20 18 16 14 11 10 9 8 7 6 6 5 5 5 5 6 7 9 10 13 16 21 28 34 41 48 54 56 59 61 65 76 91 100 101 100 101 101 100 98 95 93 87 84 90 90 82 78 73 69 66 64 61
8 8 10 10 11 17 19 17 18 19 19 22 26 27 22 16 16 15 15 21 24 23 20 19 20 20 20 22 23 25 27 27 29 30 30 30 30 29 27 26 25 24 23 21 19 17 14 12 10 9 8 7 6 6 5 5 6 6 7 8 10 12 16 20 26 34 42 48 53 57 61 61 61 66 76 80 84 94 100 99 100 101 102 102 100 98 94 92 95 93 85 79 74 72 71 69 66
10 9 10 11 10 16 21 21 22 22 19 20 24 25 19 13 13 15 16 19 20 19 20 22 21 21 22 24 25 27 29 30 31 32 32 31 30 29 28 27 26 24 22 20 17 15 12 10 9 8 7 6 6 6 6 6 7 8 9 11 14 18 23 30 37 45 51 55 58 61 64 65 62 65 80 92 95 97 100 99 100 100 100 101 102 101 98 95 94 91 83 76 72 73 75 71 68
11 10 11 11 11 15 17 19 24 25 22 23 25 24 19 15 15 16 17 18 19 21 23 23 22 23 24 25 27 30 31 32 33 33 33 32 31 31 30 28 27 24 21 18 16 13 11 9 8 7 6 6 6 6 7 7 9 11 13 16 21 26 31 39 45 50 54 56 58 61 64 66 67 66 71 83 92 96 99 99 99 100 100 100 101 101 101 99 97 94 89 81 76 78 79 77 74
Wind_Speed
9 9 9 8 6 6 7 6 5 7 7 7 7 6 5 6 7 8 9 7 7 7 6 5 5 5 5 4 4 4 4 4 4 4 5 7 8 8 11 12 13 14 15 16 16 17 17 16 16 16 16 17 17 16 15 15 15 16 17 17 17 17 17 16 15 15 15 17 18 20 21 21 21 20 20 22 22 22 22 21 22 22 22 22 22 22 22 22 23 25 28 30 32 33 33 32 32
9 9 9 8 7 6 6 6 5 6 7 7 8 7 5 7 7 8 8 8 7 7 6 6 5 6 5 3 2 3 2 3 4 4 5 6 7 9 12 13 14 15 16 17 17 17 16 16 15 15 16 16 16 15 15 15 15 16 17 17 17 18 18 17 16 16 16 16 17 18 19 21 23 22 22 23 23 23 23 23 24 24 24 24 23 23 23 23 23 23 25 27 30 33 34 33 33
9 9 8 8 7 6 5 6 6 7 8 6 6 8 8 9 9 9 10 9 7 6 6 6 6 6 4 2 2 4 4 4 5 7 7 8 9 11 13 14 15 16 17 17 17 16 16 16 15 15 16 16 16 16 16 16 15 16 16 17 17 17 18 17 17 16 16 17 18 19 18 20 23 24 24 24 25 24 24 24 25 25 25 25 25 25 24 24 24 24 24 26 27 29 30 32 33
8 7 7 7 6 5 5 7 8 8 8 5 5 9 11 11 10 11 11 10 8 7 7 7 6 6 4 3 3 4 5 5 6 7 9 10 11 12 14 16 16 16 17 17 17 17 17 17 16 16 16 16 16 17 17 17 17 17 18 18 18 18 18 17 17 17 17 18 19 20 20 20 21 23 25 25 26 25 26 27 26 26 25 26 27 26 24 24 24 25 24 25 25 25 26 26 28
6 5 5 6 5 5 6 7 9 8 7 5 6 10 13 13 12 12 11 9 8 8 8 7 6 5 4 4 5 5 6 6 7 8 10 11 12 14 15 16 16 16 16 16 17 17 18 17 16 16 17 17 18 18 18 18 19 19 19 20 20 20 20 20 19 18 18 19 21 22 21 22 21 22 24 25 26 26 28 29 27 27 27 28 29 28 25 24 24 24 24 26 25 25 24 22 24
5 3 3 4 5 5 6 6 7 7 8 7 7 11 14 14 13 12 11 10 9 9 8 7 6 5 5 6 6 6 7 7 8 10 11 12 14 15 16 16 16 15 15 15 16 17 17 16 16 16 17 18 19 20 20 20 20 20 21 21 22 22 22 22 21 20 19 20 22 23 23 23 23 22 22 24 28 29 30 30 30 31 31 30 30 30 28 26 24 24 25 26 26 26 24 22 22
4 3 3 3 4 5 7 7 6 6 8 9 9 11 13 14 14 12 11 10 10 9 9 8 7 7 7 7 7 7 8 9 10 12 13 14 15 16 17 17 16 15 15 15 16 17 18 17 17 17 18 19 20 21 22 22 23 22 22 22 22 23 23 23 22 21 20 19 20 22 23 23 24 23 21 22 27 30 31 31 33 34 32 28 28 28 28 28 26 27 27 25 26 27 25 22 19
6 4 4 4 5 6 8 9 8 8 8 9 9 11 12 13 13 11 10 10 10 10 10 9 8 8 8 8 9 9 9 10 11 13 15 15 16 17 18 19 17 16 16 16 17 18 19 20 20 20 20 20 21 21 21 22 24 24 24 24 23 24 24 23 22 21 20 19 19 21 23 23 24 24 24 24 26 29 32 33 32 32 29 25 25 26 27 27 27 27 26 26 28 29 28 28 25
7 6 6 5 6 7 8 9 8 9 9 9 10 12 12 12 12 11 11 11 11 11 10 9 8 8 9 9 10 11 11 12 13 15 16 16 16 18 20 19 18 17 17 17 18 19 20 21 22 22 21 21 22 22 22 22 23 25 25 24 25 25 25 25 24 23 21 20 20 21 23 23 24 25 25 24 25 27 30 34 31 31 30 27 25 24 25 25 26 26 24 25 29 31 32 31 32
8 7 7 7 8 9 9 8 8 9 9 10 11 12 13 13 12 11 12 11 11 11 10 9 8 9 9 10 11 12 13 14 16 17 17 17 18 20 21 20 19 18 18 18 19 20 21 21 22 22 22 22 23 23 23 23 24 25 25 24 25 25 26 26 25 24 23 22 21 21 23 23 24 24 24 23 22 22 27 34 33 33 34 31 28 25 25 26 27 27 27 27 28 31 32 32 32
9 7 7 8 9 9 9 8 9 10 10 10 11 12 13 13 12 12 12 11 11 11 10 9 9 9 10 11 12 13 14 16 18 18 18 19 20 21 21 21 20 19 19 20 20 20 20 21 21 22 22 23 23 23 23 23 23 24 24 24 24 24 25 25 24 24 23 23 22 23 24 23 24 24 23 22 19 18 24 30 29 31 32 30 28 24 25 28 29 28 30 30 30 30 31 31 30
9 8 7 8 10 9 9 8 10 11 11 11 11 11 12 12 12 11 11 11 11 10 9 9 10 10 11 12 13 14 16 17 18 19 20 21 21 22 22 21 21 20 20 21 21 21 20 20 20 21 22 23 23 23 22 22 23 23 22 22 22 22 22 23 23 22 22 23 23 24 24 23 23 23 23 20 16 13 17 18 16 17 16 14 16 18 22 25 29 30 31 32 32 33 32 31 30
8 8 7 9 11 11 9 8 10 10 11 12 12 12 12 12 12 12 11 10 10 10 10 10 10 11 12 13 14 15 16 17 18 20 21 22 22 22 22 22 22 21 22 22 21 20 19 19 20 21 22 22 22 22 21 21 22 22 22 21 21 20 20 20 20 21 22 23 24 24 24 23 22 21 18 13 8 8 9 7 4 4 5 7 9 11 15 19 23 29 34 35 35 34 32 32 33
9 9 8 11 12 11 9 8 9 9 10 13 13 13 13 12 13 12 11 11 10 11 10 10 11 11 12 14 15 16 17 18 20 22 22 22 23 23 23 23 22 22 23 23 21 18 17 18 19 20 21 21 21 21 20 20 21 22 22 22 22 21 20 19 18 19 21 23 24 25 24 23 21 18 13 8 8 10 11 10 9 9 10 12 12 11 12 16 17 21 27 30 31 29 29 30 32
10 11 11 12 12 11 9 9 9 8 10 13 13 13 13 13 13 12 12 12 12 12 12 12 12 12 12 14 15 17 19 22 23 24 23 23 23 23 23 24 23 24 23 22 19 17 16 18 19 20 20 20 20 20 19 19 20 22 22 22 21 21 21 19 18 17 19 21 24 25 24 23 21 17 13 13 14 16 17 17 17 17 17 18 16 14 13 14 15 17 20 22 24 25 25 26 28
10 11 11 13 12 10 10 11 9 8 11 13 12 13 13 14 14 13 13 13 13 13 13 13 13 12 13 15 17 19 22 23 24 24 24 23 23 23 24 24 24 23 22 20 17 16 17 18 20 20 20 20 19 19 19 19 20 21 22 22 21 21 21 19 18 17 17 19 21 22 22 20 17 14 12 14 16 18 19 19 18 17 19 20 17 14 13 14 16 18 20 20 22 23 24 25 24
11 11 12 12 11 9 11 11 8 8 11 11 11 13 13 14 14 14 14 14 14 14 13 13 14 14 15 17 19 21 23 23 23 23 23 23 23 23 23 23 23 23 22 19 17 17 18 20 21 21 21 20 19 19 19 18 19 20 22 22 21 20 20 19 17 15 16 18 19 17 17 15 13 12 12 14 16 19 19 18 17 17 18 17 14 13 13 15 17 19 20 20 21 22 24 25 23
11 12 12 11 11 11 12 11 9 9 9 9 11 12 13 14 14 14 15 15 15 15 14 15 15 16 17 19 21 22 22 22 22 21 21 20 21 21 22 22 23 23 22 20 18 18 20 22 23 22 21 21 20 19 19 18 18 19 21 22 21 19 19 18 15 13 11 13 16 13 12 14 12 12 14 16 18 19 19 18 17 18 18 14 13 14 15 16 18 20 21 20 21 21 22 22 22
12 13 12 11 12 12 12 10 10 9 8 8 10 11 13 14 14 15 15 15 15 15 15 16 17 18 20 21 21 21 21 20 20 19 18 18 18 19 20 21 21 21 19 18 18 20 22 23 24 23 23 23 22 21 21 20 18 18 20 21 21 19 17 16 15 12 6 8 10 9 11 13 10 12 16 17 18 19 20 19 18 17 17 14 13 15 18 17 18 21 21 20 21 21 20 19 19
14 14 14 13 13 13 12 10 9 9 8 8 10 11 13 14 14 14 14 14 15 16 16 17 18 20 21 21 20 19 19 18 17 16 16 16 17 18 18 19 18 18 17 18 19 21 23 24 24 25 24 24 24 23 22 21 20 18 19 20 21 20 17 16 14 12 9 9 11 12 13 12 11 13 17 18 19 21 22 22 21 18 16 15 16 17 19 19 19 21 21 21 21 20 18 18 19
15 15 15 14 13 13 13 12 11 10 10 9 11 12 13 14 15 15 15 16 17 17 18 19 20 20 21 20 19 18 17 15 15 15 16 16 17 18 18 18 17 17 18 19 21 22 23 25 25 25 24 24 24 23 23 22 21 19 19 20 21 21 19 17 13 10 9 11 12 13 14 13 15 16 18 20 21 23 24 23 23 20 17 17 17 17 19 21 21 21 21 22 22 20 19 18 19
16 16 16 15 13 13 13 12 11 10 10 11 12 13 14 15 16 16 17 18 19 19 19 20 20 21 20 18 17 16 14 13 14 14 15 17 17 17 17 17 17 17 19 20 22 23 24 25 26 26 25 24 23 23 23 22 21 20 19 19 20 21 21 18 13 9 8 10 12 14 16 16 17 18 20 22 23 25 26 24 24 23 20 19 19 18 19 20 22 23 23 23 22 22 22 20 19
16 18 16 14 13 13 13 12 12 11 11 11 13 14 15 16 17 18 18 19 20 20 20 20 20 20 18 16 15 14 13 13 13 14 15 16 16 16 16 16 16 17 19 21 22 24 25 26 26 26 25 24 24 23 22 22 21 20 19 19 19 19 21 19 15 13 14 15 14 14 15 17 19 21 22 23 24 25 25 24 23 23 21 20 22 22 21 21 21 23 24 23 22 24 25 23 23
16 18 17 15 14 14 14 14 14 14 13 13 14 14 15 16 17 18 18 19 19 20 20 20 19 18 16 15 14 13 13 13 13 14 15 15 15 14 14 15 16 18 19 21 23 24 25 26 26 26 25 24 23 22 22 21 20 20 19 18 18 19 20 21 20 17 17 19 19 19 19 18 20 22 24 25 25 25 25 24 25 26 23 22 23 24 23 22 22 22 24 25 25 26 27 27 27
17 17 16 15 15 15 14 15 15 15 15 15 15 15 15 16 17 18 19 19 20 20 20 19 18 16 15 14 13 13 13 13 14 15 15 15 15 15 15 16 18 19 20 21 23 24 25 25 25 24 24 23 23 22 21 20 19 18 18 18 17 17 19 21 22 20 19 19 20 23 23 23 22 22 22 24 25 26 26 25 24 26 25 24 25 26 25 24 24 24 24 26 28 30 30 31 32
17 16 15 15 15 15 15 15 16 16 15 16 16 16 16 16 17 18 19 19 19 19 19 18 17 16 15 13 13 13 13 14 15 16 16 16 16 16 17 18 19 19 20 22 23 23 23 23 22 22 22 22 22 21 21 20 19 18 18 17 16 15 16 18 21 21 20 21 22 23 24 26 28 27 25 24 25 25 26 26 24 25 28 28 28 29 28 26 27 28 28 29 31 33 34 35 35
17 15 15 14 15 15 15 15 16 16 16 17 17 16 16 17 18 18 19 19 19 18 17 16 15 14 14 13 13 13 14 16 17 17 17 17 17 17 17 18 18 19 21 22 22 22 21 21 20 20 20 20 20 20 21 20 20 20 19 19 18 16 15 15 18 21 22 23 23 23 24 27 30 30 29 29 29 28 27 27 25 26 29 30 31 31 30 29 30 31 31 32 34 36 37 37 36
16 15 15 14 14 14 15 15 16 16 16 17 16 16 17 18 18 19 18 18 16 15 14 13 13 12 12 13 13 15 17 18 17 17 17 16 16 17 17 18 18 19 20 21 20 20 20 20 20 20 20 20 19 20 20 20 20 21 21 20 20 19 17 16 16 18 21 23 23 23 24 26 28 30 31 32 33 33 31 31 30 28 28 30 31 32 33 33 34 34 35 35 36 38 38 38 37
15 15 15 15 15 15 16 16 16 16 17 17 16 16 18 19 18 17 15 14 12 11 11 10 10 11 12 13 15 17 18 18 17 16 16 15 15 16 17 17 18 19 20 19 19 19 20 20 20 20 20 20 20 20 20 21 21 21 21 21 21 21 20 19 18 17 18 20 23 24 25 26 28 30 31 33 34 34 34 34 35 35 33 32 31 31 33 34 36 37 37 38 39 40 39 39 39
13 13 13 14 13 15 16 15 16 17 17 17 16 14 15 15 13 12 11 10 9 8 9 9 10 12 13 14 16 17 17 16 15 15 14 14 15 16 16 17 18 18 19 19 19 20 20 20 20 21 21 21 21 21 21 21 22 22 22 22 22 22 22 21 20 19 18 18 20 24 27 28 28 29 29 31 32 32 33 35 37 38 37 36 36 34 33 34 35 36 36 37 39 40 41 42 42
13 12 13 14 12 12 15 14 14 15 14 14 13 12 11 10 9 9 8 7 8 8 9 11 12 13 14 16 16 16 15 14 13 13 13 14 14 15 16 16 17 17 18 18 19 20 20 20 21 21 22 22 22 22 23 23 23 23 23 23 23 23 23 23 22 21 20 19 19 21 24 27 29 30 30 31 31 31 32 33 35 37 38 39 39 39 38 38 39 40 40 39 38 38 38 40 44
15 12 12 14 12 12 14 12 12 12 11 11 11 10 11 10 8 8 7 7 9 10 12 13 14 14 15 16 15 14 13 12 12 12 13 13 14 15 15 16 16 17 18 18 19 20 20 21 21 22 22 23 24 24 24 25 25 25 25 25 24 25 24 24 24 24 23 22 21 21 22 24 26 29 31 32 33 33 34 34 35 37 39 40 41 41 42 41 41 43 44 44 43 42 40 40 41
16 13 11 12 11 10 11 10 11 10 9 9 10 9 8 9 8 8 9 11 12 13 14 14 14 15 14 14 13 12 11 11 11 12 12 12 13 13 14 15 16 17 18 19 19 20 21 21 22 23 23 24 25 25 26 27 28 28 28 28 28 28 27 27 27 27 26 26 25 24 24 24 25 26 28 30 31 33 34 35 36 37 39 41 42 43 44 44 44 44 45 46 48 47 47 45 44
14 14 13 13 12 10 9 10 10 10 9 8 9 9 9 9 10 11 12 13 13 13 13 14 13 12 12 11 10 10 9 9 10 10 10 11 12 12 13 15 16 17 18 18 19 20 21 21 22 23 24 25 26 27 27 28 29 30 31 31 31 31 31 31 31 31 31 30 30 29 28 28 28 28 28 29 31 32 33 34 35 36 38 40 41 42 44 46 47 47 45 45 47 50 51 50 50
10 11 11 11 11 11 11 10 9 10 10 8 8 10 11 11 11 11 11 12 12 12 12 11 10 9 8 7 7 7 7 7 7 8 9 10 11 12 13 15 16 17 18 19 20 20 21 22 23 24 25 26 27 28 29 30 31 32 33 34 35 35 35 35 35 36 36 35 35 35 35 35 34 34 34 34 34 35 35 35 36 37 38 39 40 41 42 45 47 49 48 45 45 48 51 53 52
10 9 10 10 9 10 11 11 10 11 10 9 9 10 10 9 8 9 9 10 10 10 9 8 7 5 4 3 3 3 4 5 6 7 8 10 11 13 14 15 16 17 18 20 21 22 22 24 25 26 27 28 29 30 32 33 34 36 37 38 39 39 39 39 40 40 41 41 41 41 42 42 42 43 43 43 42 42 41 41 41 41 40 41 41 41 42 43 45 47 49 48 46 45 48 51 52
11 10 11 11 9 10 12 11 11 11 9 9 8 7 7 6 7 8 9 9 9 7 6 4 2 0 1 2 2 3 3 4 6 7 8 10 12 13 14 15 17 18 20 21 22 23 24 25 26 28 29 31 32 33 35 36 37 39 40 41 42 43 43 44 44 45 45 46 46 47 48 48 49 50 50 50 50 50 49 49 48 48 47 47 46 45 45 44 45 46 48 49 49 48 48 49 51
10 10 10 11 10 11 12 11 11 10 8 7 6 6 5 6 8 9 9 7 6 4 2 3 4 4 5 4 4 3 4 5 6 7 9 10 12 13 15 17 18 20 21 22 24 25 26 27 29 30 32 33 34 36 37 38 39 41 42 44 45 46 47 47 48 48 48 49 49 50 50 51 52 53 54 55 55 55 55 54 53 53 52 52 52 52 51 50 49 49 48 49 50 51 51 51 51
9 10 10 9 10 11 10 10 9 7 6 5 5 5 5 6 7 6 5 5 5 5 6 6 6 6 6 5 4 4 5 6 7 8 10 11 13 14 16 18 20 21 23 25 26 28 29 31 32 33 34 35 36 37 39 40 41 43 44 46 48 49 49 49 50 50 50 51 51 52 52 53 53 54 55 56 57 57 57 57 56 55 54 53 52 53 54 54 54 54 53 52 52 52 52 53 53
10 10 9 9 11 10 7 7 7 6 5 5 3 1 1 3 5 6 7 8 8 8 8 8 7 6 6 5 5 6 7 7 8 9 11 13 14 16 18 20 22 24 26 28 30 31 32 33 34 35 36 36 37 39 40 42 44 45 47 48 49 50 50 51 52 53 53 54 55 55 55 56 56 56 56 56 56 57 57 57 57 56 55 54 53 52 52 53 54 55 56 56 56 55 54 54 54
10 10 10 10 10 8 7 7 6 5 5 3 2 5 7 6 7 9 10 10 10 9 8 7 7 6 6 6 6 7 8 9 10 11 13 15 17 19 21 24 26 27 29 30 31 32 33 35 36 37 38 39 39 41 43 45 47 48 50 50 51 52 53 54 55 56 57 57 57 58 58 58 58 58 58 57 57 57 57 56 56 55 55 54 53 52 51 50 51 52 53 55 56 58 58 57 56
9 9 9 9 7 7 7 7 5 5 5 4 5 6 4 5 7 10 10 10 9 8 7 6 6 5 5 6 7 8 9 10 11 13 16 19 21 23 24 26 27 28 30 31 32 34 35 36 38 39 41 42 42 44 45 47 49 50 50 51 52 54 56 57 58 59 59 60 60 60 59 59 59 59 59 59 59 59 58 57 56 55 54 53 53 52 51 50 49 49 49 51 52 55 57 58 59
7 8 7 7 7 6 6 7 6 5 6 5 6 5 3 6 8 9 9 8 7 6 5 5 5 5 6 8 9 10 10 11 14 17 20 22 23 24 25 26 28 30 31 33 34 35 37 38 39 41 43 44 45 46 47 49 50 51 52 53 54 56 58 60 61 62 63 64 64 64 63 62 61 61 61 61 61 61 60 59 57 56 54 53 52 51 50 49 48 47 47 47 48 50 52 55 57
7 8 7 6 7 7 7 8 8 8 7 4 4 6 5 7 8 7 7 6 5 4 4 4 4 6 7 9 11 11 12 14 17 21 23 23 24 25 25 26 29 32 33 35 36 37 38 39 41 43 45 46 47 48 49 50 52 52 53 55 56 58 60 61 63 64 66 67 68 68 68 67 66 65 64 63 63 62 60 59 57 55 54 52 51 50 49 48 47 46 45 45 45 47 48 50 52
7 7 6 6 7 7 8 8 8 9 7 3 5 8 5 5 9 8 5 4 3 2 1 3 5 7 8 10 13 14 15 17 21 23 24 24 24 25 26 28 30 33 35 36 37 38 39 41 43 46 47 48 49 50 51 52 53 54 56 58 59 60 61 63 65 67 69 70 71 72 72 70 68 67 65 63 62 61 59 57 55 54 52 51 50 48 47 47 46 45 44 44 43 44 46 47 49
7 7 6 6 6 6 6 6 7 8 6 4 6 8 4 4 10 9 5 5 3 1 1 4 6 7 9 12 15 16 17 21 24 25 24 24 24 26 28 30 32 34 35 37 38 40 41 43 45 47 49 50 51 52 53 54 55 56 58 60 61 62 63 64 67 69 71 72 72 72 70 68 67 65 64 62 60 58 57 55 53 51 49 48 47 46 45 44 44 43 42 42 42 42 43 45 47
6 5 4 4 4 3 4 5 7 6 4 5 8 8 4 3 10 12 7 6 6 3 3 5 7 8 10 14 17 18 20 24 26 26 25 24 25 27 29 31 32 34 36 38 40 41 43 45 47 49 50 52 53 54 55 55 56 58 59 61 62 63 65 67 69 71 72 71 70 67 65 63 62 61 61 60 58 56 54 52 50 48 47 45 44 43 42 41 41 41 40 40 41 41 42 43 45
5 4 4 3 2 3 4 5 7 4 2 8 10 6 2 2 8 14 11 8 7 5 5 7 9 10 13 17 19 20 22 26 27 27 26 25 27 28 30 32 33 35 37 39 41 42 44 46 48 50 52 53 54 55 56 57 58 60 61 63 64 66 68 70 70 70 68 66 64 62 60 59 58 57 57 56 54 53 51 50 48 46 44 43 41 40 40 39 38 38 38 38 39 39 41 42 43
4 4 5 5 3 3 3 2 3 3 1 8 10 3 2 4 8 14 13 9 7 6 8 9 10 12 16 19 21 22 25 27 28 27 27 27 28 29 31 32 34 35 37 39 41 43 45 47 49 51 53 54 55 56 57 59 61 62 64 66 68 69 69 68 67 65 63 60 59 57 56 55 53 53 52 51 50 51 50 48 47 45 42 40 38 38 37 37 36 36 36 36 37 38 39 40 42
4 5 6 5 2 2 3 2 1 2 2 8 10 3 3 6 8 13 13 9 8 8 10 10 11 14 19 21 22 24 27 27 27 27 28 29 30 31 32 33 35 37 38 40 42 44 46 48 50 51 53 55 56 58 59 61 62 64 65 66 66 65 64 63 61 60 58 56 55 53 53 52 50 49 48 46 47 48 48 47 46 44 42 39 37 36 36 36 36 36 36 35 36 36 37 38 39
4 6 5 5 3 2 2 1 1 1 1 5 8 4 3 7 8 11 11 10 10 10 10 11 14 18 21 22 24 26 27 27 28 29 30 30 31 33 34 35 36 38 40 41 43 45 46 48 51 52 54 56 57 59 60 61 61 62 62 62 61 61 60 59 58 57 55 53 51 50 49 49 48 46 45 44 45 46 44 45 46 45 42 39 37 36 36 37 37 36 36 36 36 35 36 37 38
4 4 3 4 5 3 1 1 1 0 1 3 6 5 6 9 9 11 11 11 12 11 11 12 17 21 22 24 26 27 27 28 30 31 31 32 33 35 36 37 38 40 41 42 44 46 47 49 51 53 54 56 57 58 59 60 60 61 61 61 61 60 59 58 57 55 53 51 49 47 46 46 45 44 41 41 44 45 42 43 44 45 43 41 39 37 37 38 38 37 37 36 36 36 36 37 37
4 3 3 5 5 4 3 2 1 1 1 3 5 5 6 8 10 12 12 12 12 11 12 15 19 22 24 26 26 26 28 30 32 33 34 35 36 37 38 39 40 41 42 43 45 46 48 49 51 52 54 55 56 58 59 60 61 61 61 60 60 58 57 56 54 53 51 48 47 45 44 43 43 42 39 39 43 46 44 43 44 46 46 44 42 40 38 39 39 39 38 38 38 38 38 38 38
4 3 4 5 4 3 3 2 1 1 2 2 5 6 6 7 7 10 12 12 12 11 13 17 21 24 25 26 26 27 30 32 33 34 35 36 37 38 38 39 40 41 42 43 44 46 47 49 50 52 53 55 56 58 59 59 59 59 59 58 57 56 54 53 51 48 46 44 43 42 41 41 40 40 39 38 41 44 47 47 45 47 48 46 45 44 41 40 40 39 39 39 39 39 40 41 41
4 4 4 4 2 2 3 2 1 1 2 1 4 6 9 12 11 10 10 10 11 12 15 20 23 25 26 25 27 30 32 33 34 36 36 37 37 38 39 40 40 41 42 44 45 46 48 49 50 52 53 55 56 57 57 57 57 56 56 55 54 52 50 48 46 43 41 40 39 39 38 38 38 38 38 38 40 41 44 45 43 44 46 46 46 45 43 41 40 39 39 40 41 42 42 42 43
3 3 3 3 2 3 4 3 2 2 2 2 2 3 7 13 14 10 8 8 10 13 18 22 25 26 25 26 29 32 33 34 35 36 37 38 38 39 40 41 42 43 44 46 47 48 49 50 51 52 53 54 55 56 56 55 55 54 54 52 51 48 46 44 41 39 37 36 36 36 36 36 35 35 35 36 38 39 39 41 41 42 43 44 44 43 41 40 40 40 41 41 43 44 44 43 44
4 2 2 2 3 3 3 4 5 4 2 1 2 2 5 9 9 8 8 9 12 16 20 23 26 26 25 28 31 33 34 35 36 37 38 39 40 41 42 44 45 46 47 48 48 49 50 51 51 52 53 54 55 55 54 54 53 52 51 49 47 44 41 39 37 35 34 34 34 35 35 35 34 34 34 34 36 37 37 38 39 40 41 41 41 41 41 40 41 42 43 44 45 45 44 44 45
5 4 3 3 3 3 2 3 7 7 5 3 2 3 5 8 8 8 9 11 15 18 21 26 27 25 27 31 33 35 36 37 38 39 39 40 42 43 44 46 47 48 48 49 50 50 51 51 51 52 53 53 54 54 53 52 50 49 48 45 43 40 38 36 35 34 33 34 34 34 34 34 34 34 34 36 38 39 40 39 39 38 39 40 40 41 41 42 43 44 46 47 46 44 44 45 46
Wind_Direction
279 276 272 269 262 250 251 244 243 245 231 230 228 217 215 200 182 175 168 166 169 171 174 180 187 198 203 198 207 210 229 235 225 227 238 267 291 292 292 292 293 293 294 296 299 301 303 304 304 303 302 301 301 300 295 289 286 284 284 285 286 286 285 285 285 284 284 284 283 279 277 275 272 269 268 268 267 268 269 266 264 264 262 259 258 257 255 254 252 251 250 247 245 245 246 246 246
285 278 268 265 261 252 253 235 224 232 226 229 222 209 203 185 168 168 169 170 176 175 180 190 199 207 205 202 234 251 253 267 278 288 296 308 315 306 305 304 300 296 294 295 297 299 300 301 300 299 298 297 295 292 288 283 281 280 280 282 283 285 287 287 286 284 286 289 288 283 280 275 271 269 267 268 269 268 267 266 264 264 265 264 260 257 255 254 254 253 251 250 248 247 247 246 247
291 279 262 254 253 248 243 229 224 223 225 225 209 208 189 166 166 171 173 174 175 178 187 190 199 212 208 219 271 279 286 297 308 322 329 329 326 319 316 311 304 298 295 295 295 296 296 295 294 294 294 292 289 285 282 280 276 273 273 274 276 278 281 286 288 286 288 290 289 288 286 278 272 270 268 267 268 268 266 266 263 264 267 265 260 256 254 255 255 252 251 254 253 252 253 251 250
297 275 250 240 240 243 233 227 230 226 233 221 191 200 179 168 177 176 175 174 173 180 188 188 200 215 222 261 276 282 296 306 318 330 332 331 329 323 319 313 307 301 298 297 296 295 293 293 293 292 290 287 284 281 279 279 276 272 271 270 271 272 274 277 282 284 286 288 288 289 288 285 280 274 270 266 266 269 268 266 263 264 268 265 260 254 252 253 253 253 252 254 255 254 253 251 252
305 272 237 227 227 234 223 228 232 226 233 211 190 197 180 178 180 174 177 173 174 184 187 193 209 222 236 260 273 286 294 305 322 329 329 329 327 322 319 315 310 305 303 302 302 300 297 296 295 292 288 285 282 279 278 278 277 274 272 272 272 272 273 272 274 276 280 282 284 285 285 285 283 279 274 271 271 271 270 267 267 266 266 265 260 252 248 249 251 254 254 251 251 251 249 250 253
312 285 243 231 228 226 216 230 228 215 221 201 185 196 186 185 184 181 183 178 181 189 192 200 217 236 252 259 271 282 289 304 319 323 325 325 323 321 320 319 314 309 307 307 309 309 306 304 301 295 289 284 281 280 278 278 277 275 273 273 273 273 273 274 273 273 275 277 279 282 283 282 282 283 280 277 272 267 266 265 269 267 261 263 258 250 246 243 243 246 249 248 247 246 247 250 250
300 286 266 250 239 226 218 228 215 199 212 200 186 192 189 188 188 189 189 187 189 194 202 209 222 241 256 261 272 280 291 306 315 321 323 322 321 321 321 320 315 310 309 310 312 313 312 310 306 299 291 286 283 281 279 278 277 276 275 274 274 275 274 275 275 275 275 275 278 280 283 283 283 283 280 275 267 263 263 261 265 264 261 261 254 249 246 243 240 240 241 241 242 244 241 236 233
283 275 266 252 242 234 223 225 217 208 209 204 195 190 189 188 188 191 193 193 198 204 210 217 230 246 258 264 277 285 297 307 313 317 319 319 319 318 318 316 313 310 309 310 311 312 311 309 305 299 293 288 285 284 282 280 279 278 276 276 275 274 274 275 276 276 276 275 276 278 282 284 285 285 280 275 273 274 271 264 261 260 263 260 253 253 248 243 240 242 244 240 238 241 237 227 225
274 267 260 243 236 236 231 227 222 223 216 205 200 194 192 192 191 194 196 198 204 212 219 226 239 255 265 273 286 293 300 306 311 314 315 316 315 314 314 313 312 309 307 307 308 307 306 304 301 297 293 289 287 286 286 285 283 282 280 279 277 275 274 275 276 276 277 276 275 278 281 284 287 286 284 281 282 284 271 262 259 259 263 258 259 258 244 240 240 239 243 243 238 238 236 229 229
267 261 255 245 236 234 231 226 220 225 222 209 202 200 199 198 197 195 197 202 207 216 227 235 247 263 272 282 292 297 302 306 309 311 311 312 311 312 312 311 309 306 304 304 304 302 300 299 298 296 293 289 288 286 287 287 287 287 287 285 283 280 278 276 277 277 277 276 275 277 280 284 286 287 290 289 288 286 265 255 257 263 268 267 272 267 245 241 240 237 237 241 240 236 236 233 233
263 257 251 244 236 231 229 226 223 225 222 212 206 203 202 203 200 199 201 205 212 220 230 244 257 269 278 287 294 297 300 303 305 307 309 310 311 311 310 308 305 302 301 300 300 297 296 296 296 295 293 290 287 286 286 287 288 289 291 290 289 286 284 281 279 278 277 276 274 273 277 282 285 289 292 292 291 285 265 260 264 268 271 272 275 269 255 245 240 240 241 244 245 242 239 234 234
260 258 252 239 236 237 234 227 226 227 219 211 207 204 201 199 198 201 206 208 216 225 236 250 263 273 282 288 290 293 296 299 302 305 308 310 309 308 306 304 302 300 299 297 296 295 296 296 297 296 293 291 289 288 289 290 291 292 293 294 293 292 290 286 281 278 276 275 273 271 276 282 286 289 291 296 298 283 265 266 270 269 273 282 279 268 264 255 245 246 244 245 247 245 243 235 231
258 260 255 243 246 247 240 230 229 227 219 214 211 209 202 200 201 201 207 213 221 232 243 253 263 272 278 282 285 289 294 298 302 305 307 307 306 304 302 301 301 299 296 293 293 295 297 299 301 299 296 294 293 293 294 294 294 295 297 298 299 300 299 294 285 277 273 271 271 271 274 279 282 285 291 301 299 271 257 253 239 249 296 328 317 281 271 270 259 253 247 246 249 249 248 241 234
261 262 256 250 255 254 246 238 234 221 218 223 218 216 213 211 214 209 211 219 228 237 245 252 258 266 272 277 284 290 296 299 303 305 305 304 302 301 299 299 297 295 292 290 292 295 298 303 306 305 302 300 299 298 297 297 297 298 299 301 304 305 306 303 294 281 274 269 267 267 269 273 277 281 284 273 249 241 242 244 243 251 281 303 313 302 277 277 274 264 255 249 251 254 255 255 250
264 266 260 257 260 259 252 243 235 215 221 232 223 220 221 219 222 220 222 226 232 238 243 250 255 263 272 280 289 294 299 301 303 303 303 301 299 297 295 294 292 290 290 290 292 293 298 310 315 314 311 307 304 303 302 301 300 300 300 302 304 305 307 306 303 293 282 275 271 270 271 275 278 278 270 258 252 246 250 260 262 263 280 295 302 301 284 277 276 272 267 257 254 259 265 269 266
265 265 261 257 259 259 255 250 242 221 226 234 224 221 222 222 225 225 229 231 234 240 243 250 255 262 272 282 290 294 298 299 300 300 299 297 293 291 290 290 290 291 291 291 292 293 302 314 319 319 316 312 310 308 308 307 305 304 302 302 302 303 304 306 307 302 291 282 277 276 278 280 281 277 267 261 258 254 259 266 271 276 286 294 292 287 278 273 270 267 269 265 265 270 273 272 269
262 262 259 257 260 258 257 256 242 226 230 230 223 221 220 223 226 227 230 232 236 241 246 251 258 266 273 280 286 289 292 293 295 295 294 292 291 290 292 293 295 296 296 295 294 295 304 313 316 317 317 316 314 312 311 310 309 307 304 303 301 301 302 304 307 307 304 294 289 286 282 280 277 273 264 258 260 262 264 264 271 283 288 287 275 262 256 255 256 257 258 261 266 272 270 269 266
262 262 262 258 262 259 258 257 240 232 231 224 221 221 218 221 225 228 231 234 239 244 249 255 262 269 275 281 285 287 289 292 293 293 292 291 292 292 293 295 295 295 295 294 293 295 302 308 311 313 314 315 315 313 312 310 308 306 304 302 301 300 299 301 302 307 312 297 298 305 290 282 279 271 261 255 258 262 264 266 271 281 284 274 252 243 241 242 246 248 248 252 259 260 259 260 262
267 268 267 262 264 263 260 256 244 236 228 218 219 220 218 218 222 227 231 236 240 245 251 258 265 273 280 285 288 290 292 294 295 295 294 293 293 292 291 291 291 290 290 290 290 294 300 305 309 311 313 314 314 314 314 312 309 305 302 300 300 299 296 296 295 298 291 261 273 280 275 281 277 263 258 254 254 258 263 271 277 281 279 262 241 238 236 237 243 245 243 247 249 246 248 254 256
270 271 270 267 267 266 260 254 246 241 232 219 214 216 216 216 221 228 233 237 242 248 254 263 271 278 284 289 291 293 295 297 297 297 298 297 295 292 292 292 291 289 288 288 290 294 300 304 308 310 311 312 312 313 314 313 312 307 301 298 298 297 293 289 288 291 283 260 249 248 255 258 249 250 255 253 253 261 268 274 279 281 275 255 243 240 236 236 241 244 244 244 241 237 243 253 256
269 270 269 269 267 263 258 252 247 244 235 222 212 213 214 218 224 230 237 242 248 255 262 270 277 282 287 291 292 295 298 299 300 302 302 300 297 295 295 294 292 289 288 290 294 298 302 305 308 309 309 310 311 312 312 312 312 308 301 297 294 293 291 287 283 285 289 280 265 258 260 251 243 246 253 259 264 269 273 276 278 279 275 260 248 239 235 237 238 241 243 242 241 240 241 248 257
271 270 269 268 263 257 253 250 244 239 233 226 220 220 222 226 231 236 243 249 256 263 269 274 278 284 289 292 295 299 302 304 306 308 307 305 303 300 299 298 295 293 294 295 298 300 303 306 309 311 312 312 312 312 311 310 311 308 302 296 291 288 288 285 275 261 253 263 268 265 264 260 254 251 252 260 267 271 274 276 278 277 274 264 251 242 240 243 244 243 241 241 244 246 244 242 251
270 270 268 264 257 250 247 246 243 241 238 232 227 230 234 237 241 246 251 256 262 267 271 275 280 285 290 293 297 302 305 308 309 310 311 311 309 307 305 303 300 298 298 299 301 304 307 310 312 314 316 316 316 315 314 313 312 310 305 299 291 284 281 280 272 255 236 236 244 248 256 263 260 256 257 261 263 266 271 274 276 275 273 266 255 247 245 249 251 251 247 244 247 250 247 244 248
266 265 265 259 253 247 244 244 244 246 244 239 236 238 242 244 249 253 257 261 265 269 273 277 282 286 289 293 296 300 305 307 308 309 312 313 312 310 308 305 303 303 304 306 309 312 314 315 316 317 318 319 319 318 317 316 316 313 311 306 298 289 282 277 272 262 248 242 236 232 238 249 251 248 250 258 263 265 267 271 275 277 276 268 258 250 247 249 251 253 252 249 249 249 248 248 249
264 260 259 255 250 247 244 244 245 247 246 245 245 247 249 251 254 257 260 264 267 270 274 278 281 284 287 290 293 298 303 305 307 309 310 310 311 310 308 308 309 311 313 314 316 318 319 319 320 320 320 320 320 320 320 320 320 318 316 313 307 298 289 282 277 268 257 251 243 237 237 241 246 246 244 249 256 258 255 253 259 267 267 260 254 251 247 248 252 254 255 253 252 251 249 248 248
261 258 256 252 248 247 245 244 245 247 248 249 252 254 256 257 257 260 262 265 269 272 275 278 280 282 284 287 290 296 301 304 306 308 309 311 310 310 311 314 316 317 319 319 321 322 321 321 322 322 321 321 321 321 321 321 321 320 319 316 313 307 296 286 280 273 263 258 253 247 243 242 248 254 254 252 253 255 251 244 240 242 246 247 247 249 248 250 256 259 258 256 255 254 251 249 251
259 258 255 251 248 247 245 246 247 249 251 252 255 258 260 261 261 264 266 268 271 275 277 278 279 280 283 286 291 298 304 307 308 309 311 312 312 314 317 319 320 321 322 323 324 323 323 323 324 324 324 324 324 323 323 322 321 320 318 317 315 313 307 294 283 276 270 266 261 255 249 248 251 256 260 260 259 259 257 252 244 236 237 240 242 245 248 251 255 259 260 258 255 254 252 250 252
258 256 255 251 249 249 248 250 250 250 251 253 256 259 261 260 262 265 268 270 271 274 275 275 277 279 283 289 296 303 308 310 310 312 313 314 317 319 322 322 323 324 324 325 324 325 327 328 328 327 327 327 326 325 323 322 321 319 318 316 315 313 311 305 292 283 276 270 264 259 256 254 256 259 261 262 262 262 260 258 254 250 247 246 246 245 246 247 248 251 255 257 258 258 257 253 252
255 253 252 252 253 252 252 252 252 252 252 253 256 258 259 259 261 264 264 267 268 270 272 273 277 281 286 293 301 306 309 310 312 313 315 318 321 322 324 325 325 326 327 328 329 331 332 330 330 329 329 328 327 325 323 322 320 319 317 315 313 311 309 306 301 294 285 275 264 258 257 258 261 264 264 264 264 264 262 259 258 259 259 257 256 253 250 249 249 248 248 250 254 256 258 256 253
250 247 245 248 251 252 252 251 251 250 249 251 249 248 257 258 253 255 257 259 261 264 271 275 280 284 290 295 302 306 309 311 312 315 317 320 322 323 325 326 328 330 331 333 333 333 332 330 330 329 328 327 326 325 323 322 319 317 315 312 309 307 305 303 301 298 293 285 272 262 260 260 262 265 265 264 265 266 266 264 262 263 265 265 264 263 260 259 259 258 254 251 251 253 255 255 254
247 246 245 242 240 247 251 248 247 245 243 244 236 233 250 251 237 240 245 248 256 266 275 279 282 286 292 297 302 307 309 311 313 316 319 322 324 326 327 329 332 334 334 334 332 331 329 329 329 327 327 326 325 324 322 320 318 315 313 311 307 304 302 299 297 295 291 287 280 273 267 264 263 264 264 264 265 266 267 266 266 267 269 270 269 268 267 267 267 268 267 264 261 258 257 256 256
247 243 247 244 233 240 246 239 235 233 233 229 218 224 238 236 229 231 236 249 263 271 275 277 280 285 292 298 303 307 310 314 317 321 324 326 327 328 330 331 333 334 333 331 330 328 328 327 326 325 325 324 322 321 320 318 317 315 312 309 306 303 299 296 293 290 288 285 281 277 273 270 268 266 266 268 269 269 268 267 266 267 269 271 271 270 269 269 270 271 272 272 270 268 265 262 259
247 236 240 246 231 228 232 223 221 219 222 217 205 213 221 218 225 238 251 263 267 269 271 274 278 285 292 298 302 308 315 319 323 324 327 328 328 330 331 332 332 332 331 329 328 327 326 325 323 322 322 320 319 318 317 316 314 312 309 307 304 301 298 295 292 288 285 283 281 279 277 275 273 271 271 271 272 272 272 271 270 269 269 270 270 270 271 271 272 273 272 272 272 271 271 269 265
246 240 237 243 233 219 213 213 217 218 221 213 206 217 226 235 249 258 263 265 265 266 268 272 278 284 291 298 306 314 318 322 325 326 329 331 330 330 330 330 331 329 328 326 325 324 323 321 320 319 318 317 316 314 312 310 308 305 303 301 299 297 295 293 291 288 285 282 280 279 278 278 277 276 275 275 274 273 273 273 273 273 272 272 271 271 271 272 273 273 273 271 270 270 270 271 269
241 240 230 233 231 217 208 212 219 223 229 230 230 242 251 259 265 264 262 260 261 263 266 271 278 284 292 303 314 321 324 328 331 331 332 332 329 329 329 329 328 326 324 323 321 320 320 318 317 316 315 313 311 309 307 305 303 301 299 297 296 294 292 290 288 286 284 282 280 279 279 279 279 279 279 278 278 277 276 275 273 273 273 272 272 271 270 269 270 271 273 272 270 268 267 268 269
242 238 228 223 220 217 218 221 229 235 244 253 254 257 260 263 263 260 258 258 259 262 265 270 277 286 302 319 334 342 344 343 338 335 334 332 330 329 328 326 325 323 322 320 318 317 316 315 314 312 311 310 309 308 307 305 304 302 301 300 298 296 294 292 290 288 286 284 282 280 280 279 279 279 279 280 280 280 279 278 277 275 273 272 271 270 269 267 266 267 269 271 271 269 267 267 268
248 245 240 233 223 228 233 233 241 247 252 257 253 248 249 252 256 258 259 259 259 260 261 262 263 13 69 57 46 32 10 355 343 337 336 334 331 327 324 322 320 319 317 315 314 313 313 312 311 310 310 309 308 308 307 306 305 304 303 302 300 299 298 297 295 293 292 290 288 286 284 282 281 280 280 280 280 281 281 281 280 278 276 274 273 271 269 268 266 265 265 266 267 268 268 268 268
248 243 242 238 232 237 243 244 249 252 246 239 236 238 250 260 261 259 256 250 243 232 199 141 114 102 92 77 59 39 12 358 348 342 337 332 327 322 319 317 316 315 314 313 313 312 311 310 310 310 309 310 309 309 308 307 306 305 304 303 303 302 301 300 300 299 298 296 294 292 290 288 286 285 283 282 282 282 282 282 282 281 279 277 275 273 271 269 268 266 265 264 264 265 267 268 268
246 243 240 239 237 239 248 250 244 242 236 228 243 262 268 259 250 238 219 194 169 145 127 114 101 89 77 62 47 30 13 1 350 341 333 325 321 319 317 316 315 314 313 312 311 311 310 310 310 310 311 311 311 311 309 308 307 306 305 305 305 305 304 304 304 303 302 301 299 297 295 294 292 290 288 286 285 284 284 283 283 282 281 280 278 275 273 271 268 267 266 265 264 264 265 266 267
249 243 236 235 238 233 233 234 227 229 238 243 257 260 146 173 171 162 156 145 133 124 113 100 87 74 62 51 38 24 10 355 344 335 328 324 321 319 318 316 314 313 312 311 311 310 310 311 312 313 313 313 313 311 309 308 307 307 308 307 307 307 307 306 306 305 304 303 302 301 300 298 297 295 293 291 289 287 286 285 284 283 282 281 280 278 276 273 270 268 266 264 264 263 263 264 266
249 241 233 231 232 221 213 223 229 238 246 241 166 126 105 109 137 141 140 133 124 115 102 88 76 67 57 43 28 12 359 349 341 334 329 325 322 319 318 316 314 313 312 310 310 310 311 313 315 315 315 314 313 311 309 309 309 310 310 309 309 309 308 308 307 307 306 306 305 303 302 301 299 298 297 295 294 292 290 288 287 285 284 283 281 280 278 276 274 271 268 265 263 262 261 262 263
241 237 228 221 216 209 216 230 236 236 233 211 171 156 109 106 139 138 134 129 116 104 92 80 68 60 44 24 11 0 353 346 340 333 327 324 321 319 317 316 314 311 310 310 310 312 314 316 316 316 314 313 312 311 310 310 310 310 310 310 310 309 309 309 308 308 307 307 306 304 303 302 301 300 299 298 298 296 295 293 292 290 288 286 284 282 280 278 276 274 271 268 266 263 262 260 260
223 226 220 217 218 220 231 239 237 227 218 209 198 199 153 126 146 143 135 128 109 94 80 69 55 37 17 4 358 350 344 339 333 329 324 322 319 317 317 315 312 310 310 312 314 315 316 316 314 313 313 313 312 311 310 310 310 310 310 309 309 308 308 308 308 308 308 308 308 306 305 304 302 302 301 300 300 300 299 298 297 295 293 291 289 287 285 282 280 277 274 271 268 266 264 262 260
216 223 223 228 233 238 244 242 240 231 218 208 186 180 155 139 156 157 141 121 98 88 66 48 23 2 353 349 345 337 330 327 326 325 323 321 319 318 316 313 311 311 313 315 315 315 315 313 312 312 312 313 312 312 311 310 310 310 309 309 308 308 308 308 308 308 309 309 308 308 307 306 304 303 303 302 302 301 301 300 300 299 297 296 294 292 290 287 284 282 278 274 271 268 265 263 262
220 227 233 241 242 246 245 239 237 224 201 161 146 155 149 148 166 175 162 134 106 91 41 359 340 334 333 335 334 326 320 320 323 324 323 322 320 317 314 312 311 313 315 315 314 313 312 311 311 312 312 312 312 311 311 310 310 309 309 308 308 308 307 307 307 307 307 307 307 307 306 306 305 304 303 303 302 302 301 301 300 299 298 297 296 294 293 291 288 285 282 278 274 270 267 264 262
222 233 241 245 249 246 235 223 210 195 177 159 153 151 147 165 174 178 165 156 170 215 300 323 318 311 317 326 326 319 315 319 323 325 325 323 319 315 314 313 313 314 314 313 313 312 312 311 311 311 311 311 311 310 310 309 308 308 308 307 307 307 306 305 305 305 305 304 304 305 305 304 304 303 303 302 302 301 300 300 299 298 297 297 295 294 293 291 289 287 284 280 277 273 269 266 263
225 233 235 239 243 217 200 184 174 176 175 171 159 146 140 173 180 182 180 185 208 248 287 302 300 299 312 321 319 315 314 320 323 325 324 322 318 316 316 315 314 313 313 313 312 312 312 311 311 310 309 309 309 308 308 307 307 306 305 305 304 304 303 302 302 302 302 303 303 303 303 303 302 302 302 301 301 300 299 299 298 297 296 296 294 293 291 290 289 287 285 282 278 274 271 268 266
214 212 207 203 179 154 156 153 168 190 188 176 171 153 161 207 187 192 205 220 234 266 285 291 293 298 311 316 314 312 314 320 323 324 323 321 319 318 316 316 314 313 312 311 311 310 310 309 308 308 307 307 307 306 306 305 304 303 302 302 301 300 300 300 300 300 301 301 301 301 301 300 300 299 299 299 299 298 297 297 296 296 295 294 292 291 290 289 288 287 285 284 281 277 274 271 269
198 198 194 193 167 160 184 162 186 237 218 185 188 191 247 223 200 205 216 227 242 272 287 287 291 300 310 311 309 309 314 320 321 322 322 321 320 319 317 316 314 313 311 310 309 308 307 307 306 305 305 304 304 304 303 303 302 301 300 299 299 299 299 299 300 300 300 300 299 298 297 296 295 295 295 295 294 294 294 294 294 294 294 293 290 289 288 288 287 287 286 285 284 281 278 275 273
200 198 195 206 200 188 207 188 229 253 221 198 202 230 245 203 207 218 219 231 253 273 284 286 293 302 308 307 305 310 315 318 319 319 320 320 320 319 318 316 314 312 310 309 307 306 305 304 303 302 302 302 302 301 301 300 300 299 298 298 298 299 299 300 300 300 299 298 296 294 293 291 290 289 289 288 287 289 290 291 291 291 291 291 289 287 286 285 285 286 286 286 285 284 283 281 278
207 201 199 215 211 211 225 215 251 289 92 198 206 230 211 187 205 220 221 243 264 275 280 286 298 302 304 304 307 313 315 315 316 317 318 319 320 320 318 316 314 311 309 307 306 304 303 302 301 301 301 301 301 301 301 301 301 301 301 301 301 302 302 302 301 300 298 296 294 291 289 287 286 284 282 279 279 283 286 287 288 288 288 288 289 287 285 283 282 282 284 286 286 286 286 285 283
209 202 204 209 199 192 176 158 168 75 12 223 206 214 214 202 214 224 234 256 264 271 279 287 299 301 302 306 310 312 313 314 317 318 320 321 321 321 319 316 314 311 308 306 305 304 303 302 302 302 302 303 304 304 304 305 305 305 305 305 304 304 304 303 302 301 299 297 295 291 288 285 284 282 278 273 274 277 280 281 282 285 286 286 288 288 285 282 280 279 281 284 286 287 287 287 286
213 214 208 194 187 181 157 136 132 169 269 227 191 200 211 208 228 240 244 257 260 265 279 289 297 299 302 307 309 310 312 316 319 321 322 323 322 321 318 316 313 310 308 306 305 304 303 303 303 304 305 306 307 307 307 306 306 306 305 305 305 305 305 304 303 302 300 298 296 293 289 286 284 282 277 271 271 273 275 277 278 281 284 285 287 288 286 283 279 277 278 281 284 286 288 288 286
203 209 196 180 183 193 171 144 109 195 250 230 200 213 203 193 231 245 237 248 259 261 276 288 294 299 304 308 308 311 316 319 321 323 323 322 320 318 316 313 310 308 307 306 306 305 305 305 307 308 309 309 308 308 307 306 306 305 305 306 306 306 305 305 304 302 300 298 296 294 292 289 286 283 278 271 270 273 273 273 275 277 280 284 285 285 284 282 279 276 276 279 281 284 286 287 287
193 200 190 179 189 189 171 171 222 232 259 264 214 227 227 220 227 239 239 244 250 257 277 290 296 302 307 309 311 316 320 321 322 322 321 320 318 316 314 312 310 310 309 309 308 308 308 309 310 311 311 310 308 307 306 306 307 307 308 309 309 309 308 306 305 303 301 298 296 295 294 292 289 286 282 274 271 274 272 269 269 272 277 281 283 283 282 280 278 276 276 278 280 282 284 284 285
181 182 176 181 203 190 191 216 229 236 268 271 219 225 236 227 223 236 253 245 246 269 288 295 300 306 309 311 316 320 321 322 322 320 319 318 317 315 315 314 314 314 313 313 312 312 312 313 313 312 311 309 308 308 308 310 311 312 312 312 312 311 309 308 306 304 302 300 299 298 297 295 292 288 284 278 273 273 273 270 269 270 274 279 281 281 281 278 277 277 277 279 281 283 282 281 282
195 199 189 200 211 195 213 231 222 227 254 250 258 247 219 218 224 242 256 258 274 292 299 299 303 308 310 315 320 322 322 322 320 320 319 318 318 318 318 318 318 317 316 315 314 314 314 315 314 313 312 311 311 311 313 314 314 314 314 313 313 311 309 308 306 305 304 302 301 300 298 297 294 289 282 279 276 275 275 274 272 270 272 276 278 280 280 279 278 278 278 281 282 281 279 279 281
224 234 228 228 230 207 222 248 226 221 218 210 250 275 251 247 247 252 268 286 300 305 302 302 307 312 314 319 323 323 322 321 320 320 320 320 320 321 321 320 319 318 317 316 316 316 316 315 314 314 313 313 314 314 315 315 314 314 314 314 313 311 309 308 307 305 304 303 301 300 298 296 294 290 283 277 275 276 276 276 275 274 274 275 275 277 278 278 277 278 280 282 282 279 278 279 282